EW7152 Weather Reports


time (UTC)temp
F
wind
direction
speed
knots
gust
knots
rain 1hr
in
rain 24hr
in
rain mn
in
humidity
%
barometer
mb
20240222103049 70 97 2.6 5.2 0.00 0.01 0.01 87 1012.5
20240222101555 71 74 0.9 3.5 0.00 0.01 0.01 86 1012.5
20240222100048 71 91 1.7 3.5 0.00 0.01 0.01 85 1012.3
20240222094548 71 105 2.6 6.1 0.00 0.01 0.01 83 1012.1
20240222093048 72 96 2.6 4.3 0.00 0.01 0.01 78 1011.8
20240222091547 74 324 0.9 1.7 0.00 0.01 0.01 72 1011.7
20240222090052 76 322 0.0 0.0 0.00 0.01 0.01 68 1011.5
20240222084607 76 322 0.0 1.7 0.00 0.01 0.01 67 1011.3
20240222083045 77 322 0.0 3.5 0.00 0.01 0.01 65 1011.2
20240222081545 77 318 1.7 5.2 0.00 0.01 0.01 64 1011.1
20240222080044 78 327 1.7 4.3 0.00 0.01 0.01 63 1011.0
20240222074543 78 320 1.7 3.5 0.00 0.01 0.01 63 1010.8
20240222073043 79 287 0.9 3.5 0.00 0.01 0.01 61 1010.8
20240222071548 79 282 0.9 3.5 0.00 0.01 0.01 60 1010.7
20240222070043 80 264 1.7 4.3 0.00 0.01 0.01 57 1010.5
20240222064540 82 263 0.9 3.5 0.00 0.01 0.01 56 1010.4
20240222063140 82 256 2.6 7.0 0.00 0.01 0.01 57 1010.2
20240222061539 82 333 1.7 5.2 0.00 0.01 0.01 56 1010.2
20240222060036 80 257 0.9 6.1 0.00 0.01 0.01 59 1010.3
20240222054536 79 270 1.7 3.5 0.00 0.01 0.01 60 1010.5
20240222053035 80 316 1.7 5.2 0.00 0.01 0.01 56 1010.4
20240222051534 81 259 1.7 3.5 0.00 0.01 0.01 56 1010.5
20240222050032 82 166 2.6 4.3 0.00 0.01 0.01 54 1010.5
20240222044531 82 260 1.7 5.2 0.00 0.01 0.01 56 1010.8
20240222043126 79 273 1.7 6.1 0.00 0.01 0.01 58 1011.1
20240222041525 78 268 1.7 7.0 0.00 0.01 0.01 59 1011.2
20240222040023 79 241 1.7 5.2 0.00 0.01 0.01 58 1011.3
20240222034523 80 258 1.7 6.1 0.00 0.01 0.01 61 1011.4
20240222033021 80 245 2.6 7.0 0.00 0.01 0.01 61 1011.6
20240222031517 80 293 4.3 7.8 0.00 0.01 0.01 59 1011.9
20240222030020 79 206 1.7 7.0 0.00 0.01 0.01 58 1012.1
20240222024521 81 247 1.7 5.2 0.00 0.01 0.01 60 1012.1
20240222023009 80 276 1.7 6.1 0.00 0.01 0.01 61 1012.3
20240222021516 79 280 3.5 9.6 0.00 0.01 0.01 61 1012.6
20240222020003 78 301 2.6 11.3 0.00 0.01 0.01 64 1012.8
20240222014503 79 236 3.5 8.7 0.00 0.01 0.01 64 1013.1
20240222013058 78 284 4.3 7.8 0.00 0.01 0.01 67 1013.1
20240222011558 77 253 2.6 9.6 0.00 0.01 0.01 70 1013.2
20240222010108 77 181 3.5 8.7 0.00 0.01 0.01 68 1013.6
20240222004559 77 256 3.5 7.0 0.00 0.01 0.01 71 1013.8
20240222003054 76 296 2.6 9.6 0.00 0.01 0.01 69 1014.1
20240222001602 76 306 3.5 7.8 0.00 0.01 0.01 69 1014.3
20240222000059 75 316 3.5 8.7 0.00 0.01 0.01 70 1014.4
20240221234547 75 260 3.5 7.8 0.00 0.01 0.01 71 1014.5
20240221233043 74 305 2.6 8.7 0.00 0.01 0.01 74 1014.6
20240221231538 73 252 4.3 8.7 0.00 0.01 0.01 75 1014.7
20240221230045 71 293 3.5 8.7 0.00 0.01 0.01 77 1014.8
20240221224535 71 265 4.3 8.7 0.00 0.01 0.01 77 1014.8
20240221223034 71 261 2.6 9.6 0.00 0.01 0.01 79 1014.8
20240221221537 70 274 3.5 8.7 0.00 0.01 0.01 82 1014.8
20240221220039 68 251 2.6 7.0 0.00 0.01 0.01 89 1014.8
20240221214523 65 240 0.9 3.5 0.00 0.01 0.01 94 1014.7
20240221213020 65 176 0.0 1.7 0.00 0.01 0.01 95 1014.7
20240221211517 62 176 0.9 1.7 0.00 0.01 0.01 95 1014.7
20240221210025 59 203 0.0 1.7 0.00 0.01 0.01 94 1014.7
20240221204513 58 203 0.9 2.6 0.00 0.01 0.01 94 1014.7
20240221203013 57 112 0.9 2.6 0.01 0.01 0.01 93 1014.7
20240221201513 56 110 0.0 1.7 0.01 0.01 0.01 92 1014.5
20240221200011 56 110 0.0 0.9 0.01 0.01 0.01 91 1014.4
20240221194510 56 110 0.0 0.9 0.01 0.01 0.01 91 1014.3
20240221193014 56 109 0.0 1.7 0.00 0.00 0.00 91 1014.1
20240221191512 56 109 0.0 0.0 0.00 0.00 0.00 90 1014.0
20240221190015 56 109 0.0 1.7 0.00 0.00 0.00 90 1013.9
20240221184506 55 109 0.0 0.0 0.00 0.00 0.00 88 1013.9
20240221183006 55 109 0.0 0.0 0.00 0.00 0.00 87 1013.7
20240221181505 55 109 0.0 0.9 0.00 0.00 0.00 87 1013.6
20240221180007 55 109 0.0 0.0 0.00 0.00 0.00 87 1013.4
20240221174502 56 109 0.0 0.0 0.00 0.00 0.00 86 1013.3
20240221173104 56 109 0.0 0.0 0.00 0.00 0.00 86 1013.2
20240221171602 57 109 0.0 0.0 0.00 0.00 0.00 86 1013.1
20240221170056 57 109 0.0 0.0 0.00 0.00 0.00 86 1013.1
20240221164614 57 109 0.0 0.0 0.00 0.00 0.00 86 1013.3
20240221163055 58 109 0.0 0.0 0.00 0.00 0.00 86 1013.3
20240221161551 58 109 0.0 0.0 0.00 0.00 0.00 86 1013.3
20240221160050 58 109 0.0 0.0 0.00 0.00 0.00 86 1013.3
20240221154624 59 109 0.0 0.0 0.00 0.00 0.00 86 1013.5
20240221153046 59 109 0.0 0.0 0.00 0.00 0.00 86 1013.5
20240221151549 60 109 0.0 0.0 0.00 0.00 0.00 86 1013.8
20240221150050 60 109 0.0 0.9 0.00 0.00 0.00 86 1013.9
20240221144539 60 109 0.0 0.9 0.00 0.00 0.00 86 1014.1
20240221143035 61 109 0.0 1.7 0.00 0.00 0.00 87 1014.2
20240221141537 61 109 0.9 3.5 0.00 0.00 0.00 87 1014.4
20240221140031 61 59 0.0 2.6 0.00 0.00 0.00 87 1014.6
20240221134543 61 84 0.9 3.5 0.00 0.00 0.00 87 1014.7
20240221133031 61 93 0.0 1.7 0.00 0.00 0.00 87 1014.8
20240221131534 60 93 0.0 0.9 0.00 0.00 0.00 87 1015.2
20240221130022 60 93 0.0 0.0 0.00 0.00 0.00 87 1015.1
20240221124522 60 93 0.0 0.9 0.00 0.00 0.00 86 1014.9
20240221123021 61 93 0.0 0.9 0.00 0.00 0.00 87 1015.0
20240221121521 61 93 0.0 2.6 0.00 0.00 0.00 87 1014.9
20240221120021 62 94 0.0 0.9 0.00 0.00 0.00 86 1015.0
20240221114520 62 94 0.0 1.7 0.00 0.00 0.00 86 1015.1
20240221113019 62 98 1.7 7.8 0.00 0.00 0.00 87 1014.9
20240221111520 62 136 2.6 7.0 0.00 0.00 0.00 87 1014.8
20240221110018 63 126 3.5 7.0 0.00 0.00 0.00 87 1014.7